Location: Henau
(47.4548°N, 9.1164°E)
Time: 01:25:55
(UTC+00:00)

Meteor 1-27 Rocket - Pass Details

Date: 03 March 2021
Orbit: 830 x 909 km, 81.3° (Epoch: 16 April)

Event Time Altitude Azimuth Distance (km) Brightness Sun altitude
Rises 17:33:54 0° 345° (NNW) 3,387 7.0 -4.6°
Reaches altitude 10° 17:36:20 10° 342° (NNW) 2,448 6.3 -5.0°
Maximum altitude 17:41:45 59° 264° (W) 961 4.5 -5.9°
Drops below altitude 10° 17:47:10 10° 186° (S) 2,449 6.2 -6.8°
Sets 17:49:37 0° 183° (S) 3,388 6.9 -7.2°
